• en France
  • Liste des pays
  • À 7 jours
  • Température de l'eau
  • Carte satellitaire
  • Carte météo
  • Widgets météo
  • user-avatar
    Se connecter

    Météo par heure à Pabna

    Ce jour, 23 Juillet, Lundi

    Heure Température Précipitation Vent Pression Humidité
    00:00 +29°C° 0 mm 2 m/s 748 mmHg 90%
    01:00 +29°C° 0,2 mm 3 m/s 747 mmHg 90%
    02:00 +29°C° 0,2 mm 3 m/s 747 mmHg 90%
    03:00 +29°C° 0,2 mm 3 m/s 747 mmHg 90%
    04:00 +29°C° 0,3 mm 3 m/s 747 mmHg 90%
    05:00 +28°C° 0,3 mm 3 m/s 747 mmHg 90%
    06:00 +29°C° 0 mm 3 m/s 747 mmHg 90%
    07:00 +30°C° 0,4 mm 4 m/s 748 mmHg 85%
    08:00 +32°C° 0,4 mm 4 m/s 748 mmHg 80%
    09:00 +33°C° 0,4 mm 5 m/s 748 mmHg 75%
    10:00 +34°C° 1,2 mm 5 m/s 748 mmHg 72%
    11:00 +35°C° 1,2 mm 5 m/s 748 mmHg 70%
    12:00 +35°C° 1,2 mm 6 m/s 747 mmHg 67%
    13:00 +36°C° 1,7 mm 6 m/s 747 mmHg 66%
    14:00 +36°C° 1,7 mm 6 m/s 746 mmHg 66%
    15:00 +36°C° 1,7 mm 6 m/s 746 mmHg 65%
    16:00 +35°C° 1,1 mm 5 m/s 746 mmHg 69%
    17:00 +35°C° 1,1 mm 4 m/s 746 mmHg 72%
    18:00 +34°C° 1,1 mm 3 m/s 746 mmHg 76%
    19:00 +33°C° 0,2 mm 4 m/s 746 mmHg 78%
    20:00 +32°C° 0,2 mm 4 m/s 747 mmHg 80%
    21:00 +32°C° 0,2 mm 4 m/s 747 mmHg 82%
    22:00 +30°C° 0,1 mm 4 m/s 748 mmHg 83%
    23:00 +30°C° 0,1 mm 4 m/s 748 mmHg 85%

    Demain, 24 Juillet, Mardi

    Heure Température Précipitation Vent Pression Humidité
    00:00 +30°C° 0,1 mm 4 m/s 748 mmHg 86%
    01:00 +30°C° 0,9 mm 4 m/s 748 mmHg 87%
    02:00 +29°C° 0,9 mm 4 m/s 747 mmHg 88%
    03:00 +29°C° 0,9 mm 4 m/s 747 mmHg 89%
    04:00 +29°C° 1,6 mm 3 m/s 747 mmHg 89%
    05:00 +29°C° 1,6 mm 3 m/s 747 mmHg 89%
    06:00 +29°C° 1,6 mm 3 m/s 747 mmHg 89%
    07:00 +30°C° 1,4 mm 3 m/s 748 mmHg 84%
    08:00 +31°C° 1,4 mm 3 m/s 748 mmHg 80%
    09:00 +33°C° 1,4 mm 3 m/s 748 mmHg 76%
    10:00 +34°C° 1,5 mm 2 m/s 748 mmHg 73%
    11:00 +34°C° 1,5 mm 2 m/s 748 mmHg 71%
    12:00 +35°C° 1,5 mm 2 m/s 748 mmHg 68%
    13:00 +35°C° 0,6 mm 2 m/s 747 mmHg 68%
    14:00 +35°C° 0,6 mm 2 m/s 747 mmHg 68%
    15:00 +35°C° 0,6 mm 2 m/s 746 mmHg 68%
    16:00 +34°C° 0,3 mm 2 m/s 746 mmHg 72%
    17:00 +33°C° 0,3 mm 3 m/s 746 mmHg 76%
    18:00 +33°C° 0,3 mm 3 m/s 746 mmHg 81%
    19:00 +31°C° 0,2 mm 3 m/s 747 mmHg 82%
    20:00 +31°C° 0,2 mm 3 m/s 747 mmHg 83%
    21:00 +30°C° 0,2 mm 4 m/s 748 mmHg 84%
    22:00 +30°C° 1,3 mm 4 m/s 748 mmHg 85%
    23:00 +30°C° 1,3 mm 4 m/s 748 mmHg 86%

    Après-demain, 25 Juillet, Mercredi

    Heure Température Précipitation Vent Pression Humidité
    00:00 +30°C° 1,3 mm 4 m/s 748 mmHg 87%
    01:00 +30°C° 3 mm 3 m/s 747 mmHg 88%
    02:00 +29°C° 3 mm 3 m/s 747 mmHg 88%
    03:00 +29°C° 3 mm 2 m/s 747 mmHg 89%
    04:00 +29°C° 1 mm 2 m/s 747 mmHg 89%
    05:00 +29°C° 1 mm 2 m/s 747 mmHg 89%
    06:00 +29°C° 1 mm 1 m/s 747 mmHg 89%
    07:00 +30°C° 0,4 mm 1 m/s 747 mmHg 86%
    08:00 +30°C° 0,4 mm 1 m/s 748 mmHg 83%
    09:00 +31°C° 0,4 mm 1 m/s 748 mmHg 80%
    10:00 +32°C° 0,2 mm 2 m/s 748 mmHg 76%
    11:00 +32°C° 0,2 mm 2 m/s 748 mmHg 73%
    12:00 +34°C° 0,2 mm 2 m/s 747 mmHg 70%
    13:00 +35°C° 0 mm 2 m/s 747 mmHg 68%
    14:00 +35°C° 0 mm 2 m/s 746 mmHg 66%
    15:00 +36°C° 0 mm 2 m/s 745 mmHg 64%
    16:00 +35°C° 0,2 mm 3 m/s 745 mmHg 67%
    17:00 +35°C° 0,2 mm 3 m/s 745 mmHg 70%
    18:00 +34°C° 0,2 mm 3 m/s 745 mmHg 73%
    19:00 +33°C° 0,2 mm 3 m/s 746 mmHg 76%
    20:00 +33°C° 0,2 mm 3 m/s 746 mmHg 80%
    21:00 +31°C° 0,2 mm 3 m/s 747 mmHg 83%
    22:00 +30°C° 0,1 mm 3 m/s 747 mmHg 84%
    23:00 +30°C° 0,1 mm 3 m/s 747 mmHg 85%

    26 Juillet, Jeudi

    Heure Température Précipitation Vent Pression Humidité
    00:00 +30°C° 0,1 mm 3 m/s 747 mmHg 86%
    01:00 +30°C° 0,8 mm 3 m/s 747 mmHg 86%
    02:00 +30°C° 0,8 mm 3 m/s 746 mmHg 86%
    03:00 +30°C° 0,8 mm 3 m/s 746 mmHg 86%
    04:00 +29°C° 0,9 mm 2 m/s 746 mmHg 87%
    05:00 +29°C° 0,9 mm 2 m/s 747 mmHg 87%
    06:00 +29°C° 0,9 mm 2 m/s 747 mmHg 88%
    07:00 +30°C° 1,7 mm 2 m/s 747 mmHg 83%
    08:00 +32°C° 1,7 mm 2 m/s 747 mmHg 78%
    09:00 +34°C° 1,7 mm 2 m/s 748 mmHg 73%
    10:00 +35°C° 1,8 mm 2 m/s 747 mmHg 69%
    11:00 +35°C° 1,8 mm 2 m/s 747 mmHg 66%
    12:00 +36°C° 1,8 mm 2 m/s 747 mmHg 63%
    13:00 +37°C° 1,2 mm 3 m/s 746 mmHg 62%
    14:00 +37°C° 1,2 mm 3 m/s 745 mmHg 61%
    15:00 +37°C° 1,2 mm 3 m/s 744 mmHg 60%
    16:00 +36°C° 0,8 mm 3 m/s 744 mmHg 64%
    17:00 +36°C° 0,8 mm 3 m/s 744 mmHg 68%
    18:00 +35°C° 0,8 mm 3 m/s 744 mmHg 73%
    19:00 +34°C° 0,8 mm 3 m/s 744 mmHg 76%
    20:00 +33°C° 0,8 mm 3 m/s 745 mmHg 79%
    21:00 +31°C° 0,8 mm 2 m/s 746 mmHg 81%
    22:00 +31°C° 1,3 mm 3 m/s 746 mmHg 82%
    23:00 +31°C° 1,3 mm 3 m/s 746 mmHg 82%

    27 Juillet, Vendredi

    Heure Température Précipitation Vent Pression Humidité
    00:00 +31°C° 1,3 mm 3 m/s 746 mmHg 83%
    01:00 +30°C° 0,6 mm 2 m/s 745 mmHg 84%
    02:00 +30°C° 0,6 mm 2 m/s 745 mmHg 84%
    03:00 +30°C° 0,6 mm 2 m/s 745 mmHg 85%
    04:00 +30°C° 0,1 mm 2 m/s 745 mmHg 86%
    05:00 +30°C° 0,1 mm 2 m/s 745 mmHg 86%
    06:00 +30°C° 0,1 mm 2 m/s 745 mmHg 86%
    07:00 +31°C° 0,5 mm 2 m/s 746 mmHg 82%
    08:00 +32°C° 0,5 mm 2 m/s 746 mmHg 78%
    09:00 +32°C° 0,5 mm 2 m/s 746 mmHg 74%
    10:00 +34°C° 0,3 mm 2 m/s 746 mmHg 70%
    11:00 +35°C° 0,3 mm 2 m/s 746 mmHg 66%
    12:00 +36°C° 0,3 mm 2 m/s 746 mmHg 62%
    13:00 +36°C° 0,1 mm 2 m/s 745 mmHg 61%
    14:00 +36°C° 0,1 mm 1 m/s 744 mmHg 59%
    15:00 +36°C° 0,1 mm 1 m/s 744 mmHg 58%
    16:00 +35°C° 0,4 mm 1 m/s 744 mmHg 62%
    17:00 +36°C° 0,4 mm 2 m/s 744 mmHg 66%
    18:00 +35°C° 0,4 mm 2 m/s 744 mmHg 70%
    19:00 +34°C° 0,8 mm 2 m/s 744 mmHg 74%
    20:00 +33°C° 0,8 mm 3 m/s 745 mmHg 78%
    21:00 +31°C° 0,8 mm 3 m/s 746 mmHg 82%
    22:00 +31°C° 0,5 mm 3 m/s 746 mmHg 83%
    23:00 +31°C° 0,5 mm 3 m/s 746 mmHg 84%

    28 Juillet, Samedi

    Heure Température Précipitation Vent Pression Humidité
    00:00 +30°C° 0,5 mm 4 m/s 746 mmHg 84%
    01:00 +30°C° 0,9 mm 3 m/s 745 mmHg 85%
    02:00 +30°C° 0,9 mm 3 m/s 745 mmHg 86%
    03:00 +30°C° 0,9 mm 3 m/s 745 mmHg 87%
    04:00 +30°C° 0,4 mm 2 m/s 745 mmHg 87%
    05:00 +30°C° 0,4 mm 2 m/s 745 mmHg 87%
    06:00 +30°C° 0,4 mm 2 m/s 745 mmHg 87%
    07:00 +31°C° 0,8 mm 2 m/s 746 mmHg 83%
    08:00 +32°C° 0,8 mm 2 m/s 746 mmHg 78%
    09:00 +32°C° 0,8 mm 2 m/s 746 mmHg 74%
    10:00 +34°C° 1,3 mm 2 m/s 746 mmHg 71%
    11:00 +35°C° 1,3 mm 3 m/s 746 mmHg 67%
    12:00 +36°C° 1,3 mm 3 m/s 746 mmHg 64%
    13:00 +36°C° 2,1 mm 4 m/s 746 mmHg 67%
    14:00 +35°C° 2,1 mm 4 m/s 745 mmHg 70%
    15:00 +35°C° 2,1 mm 5 m/s 745 mmHg 72%
    16:00 +34°C° 2,1 mm 4 m/s 745 mmHg 76%
    17:00 +33°C° 2,1 mm 4 m/s 745 mmHg 80%
    18:00 +32°C° 2,1 mm 4 m/s 745 mmHg 84%
    19:00 +30°C° 1,3 mm 4 m/s 746 mmHg 86%
    20:00 +30°C° 1,3 mm 4 m/s 746 mmHg 87%
    21:00 +29°C° 1,3 mm 3 m/s 747 mmHg 88%
    22:00 +29°C° 0,8 mm 3 m/s 747 mmHg 88%
    23:00 +29°C° 0,8 mm 3 m/s 747 mmHg 89%
    Voir plus